Zurück zum Katalog

HULIANWANG DIGUI-111

AktivKommunikationLEO
NORAD 66921·PAYLOAD·🇨🇳 China

Gestartet Dec 6, 2025 von Wenchang Space Launch Site

Loading…

Nächste Überflüge (nächste 24 Stunden)

TLE

AktuellSource: Space-Track

Epoche: Sep 14, 2026, 05:07 UTC

1 66921U 25285G   26257.21353378 -.00000086  00000-0  81668-4 0  9998
2 66921  50.0114 186.6515 0000177 262.8981  97.1871 13.29328897 37904

Verfolge HULIANWANG DIGUI-111 in Echtzeit mit AllMySat

Download on the App Store